This demonstration page uses our WeatherBlox Daily Observations layout. Learn more.

Left ArrowRight Arrow

39.01783, -85.05884

Hourly Observations for February 17, 2016

Temp ( °F °C ) Dew Point ( °F °C ) Humidity (%) Winds ( mph kmh ) Pressure ( in mb ) Visibility ( mi km ) Precip ( " mm )
12:35 am 00:35 Partly Cloudy with Mist and Fog 28 -2 27 -3 93 93 W 5 7 30.03 1017 6 10 0.00 0.00
12:52 am 00:52 Mostly Clear with Mist and Fog 29 -1.7 26 -3.3 89 89 SW 5 7 29.98 1015 6 10 0.00 0.00
1:52 am 01:52 Mostly Cloudy with Mist and Fog 28 -2.2 26 -3.3 92 92 WSW 3 6 29.99 1016 5 8 0.00 0.00
2:52 am 02:52 Cloudy with Mist and Fog 28 -2.2 26 -3.3 92 92 WNW 7 11 30.01 1016 5 8 0.00 0.00
3:52 am 03:52 Cloudy with Mist and Fog 29 -1.7 27 -2.8 92 92 W 5 7 30.03 1017 5 8 0.00 0.00
4:14 am 04:14 Cloudy with Light Snow 30 -1 27 -3 86 86 WNW 6 9 30.09 1019 4 6 0.00 0.00
4:52 am 04:52 Cloudy with Light Snow 30 -1.1 27 -2.8 88 88 W 8 13 30.04 1017 5 8 0.00 0.03
5:39 am 05:39 Cloudy with Mist and Fog 30 -1 27 -3 86 86 WSW 3 6 30.12 1020 6 10 0.00 0.03
5:52 am 05:52 Cloudy with Mist and Fog 30 -1.1 27 -2.8 88 88 VRB 3 6 30.07 1018 6 10 0.00 0.03
6:52 am 06:52 Cloudy with Mist and Fog 30 -1.1 27 -2.8 88 88 W 5 7 30.10 1019 6 10 0.00 0.00
7:52 am 07:52 Cloudy with Mist and Fog 31 -0.6 28 -2.2 89 89 W 5 7 30.14 1021 4 6 0.00 0.00
8:15 am 08:15 Cloudy with Mist and Fog 30 -1 28 -2 93 93 W 6 9 30.21 1023 3 4 0.00 0.00
8:52 am 08:52 Cloudy with Mist and Fog 32 0 28 -2.2 85 85 NW 8 13 30.18 1022 3 4 0.00 0.00
9:52 am 09:52 Cloudy with Mist and Fog 32 0 28 -2.2 85 85 NNW 9 15 30.21 1023 3 4 0.00 0.00
9:55 am 09:55 Cloudy with Mist and Fog 32 0 28 -2 87 87 NNW 9 15 30.24 1024 5 8 0.00 0.00
10:35 am 10:35 Cloudy with Haze 34 1 28 -2 81 81 NW 8 13 30.27 1025 5 8 0.00 0.00
10:52 am 10:52 Cloudy 33 0.6 28 -2.2 82 82 NW 5 7 30.24 1024 7 11 0.00 0.00
11:52 am 11:52 Cloudy 34 1.1 27 -2.8 76 76 W 9 15 30.25 1024 8 13 0.00 0.00
12:52 pm 12:52 Cloudy 35 1.7 27 -2.8 72 72 WNW 8 13 30.24 1024 9 14 0.00 0.00
1:52 pm 13:52 Cloudy 35 1.7 26 -3.3 70 70 WSW 5 7 30.24 1024 9 14 0.00 0.00
2:52 pm 14:52 Cloudy 36 2.2 26 -3.3 67 67 W 6 9 30.25 1024 10 16 0.00 0.00
3:52 pm 15:52 Cloudy 36 2.2 25 -3.9 64 64 W 3 6 30.27 1025 10 16 0.00 0.00
4:52 pm 16:52 Cloudy 36 2.2 24 -4.4 62 62 Calm 30.29 1026 10 16 0.00 0.00
5:52 pm 17:52 Cloudy 35 1.7 25 -3.9 67 67 W 3 6 30.31 1027 9 14 0.00 0.00
6:52 pm 18:52 Cloudy 34 1.1 24 -4.4 67 67 WNW 6 9 30.32 1027 10 16 0.00 0.00
7:52 pm 19:52 Cloudy 33 0.6 24 -4.4 70 70 W 5 7 30.34 1027 10 16 0.00 0.00
8:52 pm 20:52 Mostly Cloudy 34 1.1 23 -5 64 64 Calm 30.35 1028 10 16 0.00 0.00
9:52 pm 21:52 Cloudy 31 -0.6 25 -3.9 79 79 Calm 30.37 1028 10 16 0.00 0.00
10:52 pm 22:52 Cloudy 32 0 24 -4.4 73 73 S 5 7 30.36 1028 10 16 0.00 0.00
11:52 pm 23:52 Cloudy 31 -0.6 24 -4.4 76 76 Calm 30.37 1029 10 16 0.00 0.00

Powered by AerisWeather